Погода в Николаевке

Украина / Днепропетровская область     48°21′15″N   34°41′25″E
темп.,
°C
ветер,
м/с
пор.,
м/с
влажн.,
%
обл.,
%
осадки,
мм/ч
давл.,
гПа
погр.,
м
14 августа, вс
вс1400:00+26в7162830 0.0 1010552
03:00+25всв71445100 0.0 1009512
06:00+25всв81538100 0.0 1009673
09:00+28в101532100 0.0 1009823
12:00+34вюв91118100 0.0 10082413
15:00+36в91016100 0.0 10073609
18:00+35в6917100 0.0 10061918
21:00+31всв61322100 0.0 1006405
15 августа, пн
пн1500:00+29всв9182481 0.0 1006681
03:00+27всв91625100 0.0 1006638
06:00+24всв8163832 0.0 1006434
09:00+29в81329100 0.4 1006821
12:00+34вюв9122178 0.0 10051780
15:00+36юв91118100 0.0 10052889
18:00+36ююв5919100 0.0 10032828
21:00+28ю3338100 0.0 100431
16 августа, вт
вт1600:00+24юз5871100 0.0 1006299
03:00+22сз4684100 0.9 1006166
06:00+21ю5893100 2.6 1008335
09:00+19юв2292100 13.8 1008179
12:00+26ю576130 1.9 10091330
15:00+29ююв454494 2.0 10091767
18:00+29юв45409 0.0 10092009
21:00+25вюв485469 0.0 1009140
17 августа, ср
ср1700:00+23юз410620 0.1 1010191
03:00+22ююз22720 0.1 100931
06:00+21ююз22760 0.0 101023
09:00+26ю34600 0.0 1010638
12:00+30ю44415 0.0 10091548
15:00+32ю333424 0.0 10092487
18:00+32ююв22339 0.0 10082298
21:00+22зсз3481100 2.9 100988
18 августа, чт
чт1800:00+22юз2273100 0.1 100915
03:00+21зсз227097 0.3 100919
06:00+21ссз227647 0.0 100914
09:00+26св015647 0.0 1009373
12:00+30з224151 0.0 10091384
15:00+32зюз223576 0.0 10082655
18:00+31зсз344151 0.0 1008629
21:00+26зсз345682 0.1 100867